Theta_e
317 316 315 313 312 311 311 312 312 312 312 312 312 313 313 312 311 311 311 310 308 309 310 310 310 309 308 308 307 303 311 313 310 307 308 305 306 307 309 310 309 309 311 311 311 311 311
317 316 314 312 311 311 311 311 311 311 311 311 311 312 313 312 312 312 312 312 310 309 310 310 310 309 308 307 303 315 317 318 308 308 308 305 305 308 310 310 310 310 311 311 310 310 310
316 316 313 311 310 310 310 310 310 311 310 310 311 311 311 312 312 312 312 312 310 309 311 310 310 309 311 309 308 310 316 315 308 307 307 307 307 310 311 310 308 310 312 310 310 311 311
316 314 311 309 310 310 310 310 310 310 310 310 310 311 311 310 311 312 311 311 310 308 311 310 310 310 311 311 313 313 314 312 309 308 309 309 308 309 311 311 312 312 311 313 313 311 312
315 313 310 309 310 310 310 310 310 310 310 310 311 312 312 311 310 311 310 309 309 313 312 311 311 310 311 312 315 315 313 310 310 309 310 309 308 310 312 312 312 311 313 312 314 312 313
314 312 309 310 310 309 308 309 310 310 310 310 312 311 311 311 310 310 309 309 311 312 311 311 312 313 311 315 317 315 313 310 309 308 308 310 310 311 309 310 312 314 313 313 314 315 312
313 310 310 309 309 308 307 307 307 309 310 310 311 311 310 310 310 309 308 308 313 314 313 314 313 314 313 316 317 315 313 313 313 311 312 311 311 311 311 312 313 313 313 314 313 313 314
311 310 310 309 308 308 307 308 308 308 309 311 310 310 310 309 309 308 307 308 308 311 315 314 315 314 314 316 318 315 314 314 314 314 311 310 312 311 312 312 313 313 314 313 313 313 312
310 310 309 308 307 307 306 307 308 308 308 309 309 309 309 308 308 307 307 308 310 311 311 315 317 316 317 316 318 318 313 311 313 312 310 311 313 312 313 313 314 313 313 313 314 314 313
310 309 309 308 307 307 306 306 306 307 308 309 308 309 309 308 308 307 306 310 311 311 314 317 322 320 318 317 319 317 311 312 314 312 309 311 311 313 312 313 312 314 313 315 315 314 315
310 309 309 309 308 308 307 306 307 306 306 308 307 309 307 307 307 307 310 312 310 309 324 319 321 318 319 319 318 316 309 309 313 315 312 313 314 313 313 313 313 314 314 314 315 313 312
310 310 311 311 311 310 309 307 307 306 306 307 307 308 306 307 306 308 310 311 311 319 324 322 319 320 319 318 319 316 312 311 311 314 314 314 314 314 314 314 312 313 313 310 308 308 313
311 311 311 310 310 309 309 307 306 306 305 305 307 306 306 306 307 309 310 309 319 324 321 321 319 319 319 319 317 317 314 313 314 314 315 315 315 315 315 315 314 311 310 312 314 312 314
307 307 307 308 307 309 308 305 305 305 304 305 305 305 308 308 308 310 310 314 322 320 322 327 319 320 319 317 318 316 314 314 313 314 316 317 318 315 315 314 314 312 311 312 316 315 314
305 305 306 307 308 308 306 304 303 303 303 304 304 307 306 308 307 308 312 321 320 322 328 327 321 320 318 318 317 316 315 314 314 313 317 317 321 320 319 318 316 314 312 310 312 316 317
302 303 303 304 305 304 302 302 302 302 303 304 305 304 304 310 308 310 317 321 320 323 326 325 326 320 319 321 320 316 317 318 321 315 315 320 324 321 321 319 317 317 314 319 315 322 323
301 301 301 301 301 301 301 302 302 303 303 304 305 305 311 312 310 314 321 320 320 324 325 326 326 326 322 324 323 323 319 320 319 319 316 317 319 321 318 318 320 319 319 317 316 316 319
299 300 300 300 301 301 301 301 302 303 304 303 306 307 311 310 317 315 319 322 319 325 324 324 323 324 325 322 322 325 324 321 319 318 320 318 316 321 320 315 317 317 321 318 321 322 315
298 298 298 299 300 301 301 302 302 303 303 304 306 307 310 314 320 319 320 322 322 324 324 322 323 322 320 322 323 322 320 317 319 321 320 317 317 316 311 316 315 317 317 319 317 316 322
298 298 298 298 299 300 301 301 301 302 304 303 307 310 315 317 317 319 321 322 324 324 324 322 317 317 318 319 318 321 321 321 320 320 320 319 315 313 315 312 315 318 316 316 314 317 319
298 298 298 298 299 300 300 300 300 301 303 303 307 313 314 319 320 319 318 319 323 324 321 321 319 317 316 317 316 317 316 320 318 319 314 312 315 317 315 316 316 315 316 314 314 314 315
299 298 298 298 299 299 299 300 301 301 303 305 310 314 313 315 316 319 317 318 321 319 316 316 317 315 314 315 315 315 313 316 319 315 315 310 316 315 316 315 315 315 313 313 313 313 313
299 299 298 298 298 299 299 300 301 301 303 305 307 310 311 313 315 319 318 317 316 317 315 315 314 314 313 312 310 308 308 308 312 315 313 312 312 312 314 312 311 310 310 311 310 310 311
300 299 299 299 298 299 299 300 301 301 303 303 304 307 312 314 314 314 315 314 314 313 313 314 313 312 311 306 305 304 305 307 310 309 310 309 308 306 309 308 312 307 309 310 310 314 315
300 299 299 299 299 299 300 301 301 302 304 303 303 306 310 311 310 313 314 311 312 311 312 311 310 307 305 305 305 306 309 311 310 309 311 307 305 310 306 309 309 312 315 317 317 316 317
299 300 300 299 299 300 301 301 301 302 303 303 303 305 308 311 310 309 313 312 311 312 312 311 307 305 305 306 307 308 312 315 318 315 309 309 306 305 313 315 311 310 315 315 313 314 315
299 300 299 299 299 300 301 302 301 301 302 303 303 305 306 309 306 308 312 312 309 308 310 309 308 307 305 306 307 309 310 311 317 315 314 314 310 311 317 315 315 309 312 314 311 310 313
298 300 299 299 299 300 301 302 302 302 303 303 303 305 305 308 307 308 308 310 310 306 308 306 307 307 304 305 307 308 309 307 312 315 316 315 314 316 316 317 315 313 313 315 309 309 312
298 299 299 299 299 300 301 301 301 301 302 303 302 302 304 305 305 305 306 306 307 308 306 303 305 307 305 304 304 304 306 304 306 308 312 317 311 310 311 311 306 311 311 310 308 310 310
Wind_Speed
19 19 19 20 20 21 21 20 20 21 22 23 21 20 20 20 20 20 20 20 20 18 16 12 7 4 1 2 11 8 7 6 31 30 23 8 7 6 7 7 6 5 3 6 11 8 5
19 19 20 21 21 20 20 21 21 22 23 22 23 23 21 21 21 21 20 22 21 22 16 12 8 6 1 4 6 10 6 22 37 31 16 13 9 6 6 6 8 7 8 10 5 7 4
18 18 21 20 19 20 21 20 21 22 23 22 22 23 24 23 22 21 21 22 23 24 15 9 10 8 4 18 5 16 9 18 35 27 12 16 7 8 7 4 5 3 3 6 6 5 6
17 20 20 18 16 16 19 19 20 20 20 21 21 23 23 24 24 21 21 22 26 24 12 11 11 7 8 9 8 5 12 10 25 16 10 20 11 2 3 3 3 6 2 3 3 9 5
17 20 20 20 20 21 21 22 23 23 23 22 22 22 23 23 23 22 22 23 21 8 9 12 8 5 10 8 7 10 15 11 20 12 6 9 8 5 3 5 2 4 3 5 5 9 4
17 19 19 20 21 22 24 23 22 22 23 23 25 23 23 23 22 22 21 22 3 6 8 8 4 2 8 4 6 10 16 20 5 7 0 4 3 4 2 4 6 6 5 4 5 1 3
19 19 20 21 22 23 25 25 24 24 25 24 25 26 26 25 24 21 20 6 2 3 9 10 8 5 4 3 8 8 15 8 6 5 6 5 4 6 6 5 5 5 3 2 2 3 3
19 18 18 20 21 22 25 25 27 26 27 25 24 25 25 26 26 25 19 4 8 1 7 23 13 12 9 4 4 4 21 7 5 5 4 4 4 7 6 5 3 2 2 3 6 5 4
19 18 19 20 22 24 25 24 24 26 27 27 27 27 27 27 30 11 8 16 3 8 3 6 10 9 6 9 7 6 12 6 5 5 5 5 3 8 6 4 5 3 4 3 5 4 3
19 20 21 22 23 26 27 28 28 28 28 26 28 27 27 28 9 5 8 5 7 4 3 5 7 8 7 7 4 7 11 7 2 9 9 5 4 6 4 4 6 3 8 9 5 3 3
21 22 23 25 26 28 28 30 28 29 29 30 29 27 26 19 16 5 4 6 10 5 3 4 5 7 9 10 6 6 9 4 8 6 7 7 6 4 3 6 6 7 5 6 5 3 4
25 25 26 27 29 30 30 30 28 30 30 31 31 30 26 18 12 24 8 10 3 2 6 3 5 8 9 6 1 4 5 6 6 5 2 7 2 5 8 5 9 4 5 7 4 3 3
26 27 29 29 29 31 27 29 30 31 33 34 35 34 33 23 7 2 5 5 2 4 5 5 5 7 10 13 11 8 8 10 6 6 5 3 3 2 3 2 2 5 6 2 2 1 5
28 31 32 31 33 27 25 29 30 33 35 36 39 41 28 24 18 15 5 1 5 5 7 4 6 12 7 6 4 4 8 5 2 7 2 5 3 7 4 8 8 6 8 5 6 4 4
27 28 29 30 28 26 26 30 32 35 36 38 39 18 14 13 23 20 3 6 6 4 1 4 1 9 5 6 6 5 8 10 5 6 6 6 2 5 2 4 9 4 4 6 7 3 3
26 28 29 28 28 29 31 33 35 34 33 38 22 12 9 6 27 12 3 8 5 3 4 2 3 4 6 8 5 5 5 3 6 5 3 5 5 1 3 2 5 4 7 3 2 5 4
25 27 29 30 29 28 29 30 29 29 31 29 12 5 6 8 25 2 6 6 9 3 4 3 4 5 2 6 5 4 6 2 3 3 4 4 4 2 1 5 1 3 2 6 5 4 5
27 27 28 27 27 26 27 27 26 25 28 18 4 4 6 21 3 2 3 5 8 4 2 3 3 7 1 4 4 3 5 3 3 5 5 1 4 3 3 4 2 2 3 3 4 4 2
29 29 28 27 26 26 26 26 26 24 22 12 5 4 4 6 3 3 4 10 11 6 4 3 2 1 5 3 5 3 5 6 4 4 4 3 2 3 4 4 5 6 3 4 4 3 5
28 28 27 27 27 26 26 25 25 24 21 15 2 4 2 2 3 2 3 4 7 1 4 1 5 5 7 4 5 3 3 7 4 5 13 7 3 3 6 3 3 3 2 2 4 3 3
27 27 27 25 27 26 27 24 23 24 20 12 2 3 2 3 2 3 1 4 3 3 6 5 7 5 6 4 4 4 4 3 8 7 6 4 4 2 2 3 3 4 4 4 6 5 6
27 28 27 27 25 25 26 22 21 22 22 4 2 2 3 3 7 6 1 3 2 3 4 5 4 4 5 5 1 7 7 3 3 6 4 4 3 2 2 2 1 4 7 6 6 5 6
26 27 26 26 25 23 23 21 20 19 17 4 7 5 2 4 7 1 2 4 9 4 7 8 5 10 12 4 5 6 6 5 6 6 3 3 5 3 2 2 3 6 10 9 4 5 6
27 26 25 24 24 22 22 21 19 16 11 6 6 6 2 3 6 6 7 4 15 3 5 4 7 3 2 6 5 6 8 7 7 6 3 5 4 3 2 3 1 4 2 5 7 4 5
26 26 26 25 24 22 20 19 17 16 8 10 9 4 2 3 3 7 9 7 8 9 7 6 4 2 5 5 4 4 4 3 3 3 3 4 5 3 3 2 6 2 2 2 3 5 5
26 27 24 24 22 20 22 17 16 14 11 12 11 10 3 2 3 6 3 4 3 2 4 4 4 4 6 3 3 2 3 3 3 4 4 5 5 4 3 2 5 4 2 2 2 4 4
26 25 23 21 21 20 20 17 15 14 12 12 6 11 3 2 3 4 3 2 1 1 3 1 5 5 3 3 2 2 1 2 3 5 5 4 2 5 3 3 5 6 4 1 4 4 3
27 26 21 20 19 20 18 15 15 14 12 11 5 11 6 2 3 3 5 4 4 4 2 2 2 4 3 4 2 1 2 1 2 2 5 5 6 3 3 3 7 4 2 5 5 2 3
25 24 21 18 18 18 16 14 14 14 14 13 4 11 11 1 3 4 9 8 3 2 2 3 3 1 2 4 1 3 2 2 1 2 3 3 4 4 7 5 4 3 3 4 4 5 4
Wind_Direction
340 340 344 341 339 336 334 335 336 337 336 333 330 327 326 326 326 325 322 324 323 321 309 297 256 249 228 237 252 294 299 201 175 173 173 155 152 138 174 183 155 211 219 198 235 244 270
338 339 342 337 335 331 332 331 330 331 329 325 324 323 322 320 321 321 318 318 318 321 310 289 222 168 149 270 263 315 275 168 175 172 160 153 184 182 162 189 175 211 200 242 252 250 213
335 337 336 328 336 334 330 329 327 326 325 322 321 321 320 321 320 318 316 316 313 318 302 255 201 178 213 243 198 316 175 171 172 172 168 178 181 170 153 151 213 177 211 253 224 233 231
336 338 334 336 328 328 331 325 323 322 325 325 324 322 321 321 320 318 318 313 315 308 273 198 186 195 247 248 282 272 181 145 174 169 176 187 186 90 192 190 62 158 129 191 243 164 236
334 334 332 336 339 337 335 335 331 332 332 328 322 319 319 318 319 319 320 317 324 314 169 165 167 204 262 294 255 225 175 151 173 183 181 161 148 211 140 144 69 11 181 197 278 202 135
332 328 334 338 338 339 339 337 330 328 328 324 321 319 319 319 317 319 322 327 302 103 137 165 237 270 256 236 191 168 176 148 132 121 279 162 160 168 100 137 191 177 189 220 211 147 169
331 330 336 339 339 340 339 335 331 328 326 325 324 322 321 321 318 318 322 343 229 227 220 201 192 225 286 264 167 165 165 168 123 137 173 202 151 194 182 174 155 157 178 198 243 283 1
330 327 331 336 338 337 336 334 334 331 325 322 321 320 320 319 317 309 294 220 229 354 277 228 238 260 280 10 341 162 151 144 147 168 137 75 196 203 163 147 131 110 195 257 283 262 164
326 324 328 333 333 334 335 336 331 328 324 322 323 322 322 323 318 305 223 225 175 353 257 257 196 222 222 152 208 225 151 139 144 145 168 148 227 153 147 139 138 177 171 235 232 358 287
322 325 327 324 326 330 332 334 332 330 324 322 320 319 321 328 321 327 260 298 288 225 278 249 191 233 175 169 222 192 167 137 159 172 156 196 235 136 150 174 148 251 205 215 224 114 215
321 322 322 322 323 328 331 329 331 329 325 321 319 316 318 320 288 252 216 46 93 140 277 170 161 147 161 166 136 203 172 83 158 158 121 227 174 152 146 207 151 221 156 182 187 163 129
319 319 320 323 326 327 329 326 326 327 325 321 318 314 316 315 257 252 252 303 166 77 249 198 135 166 160 132 61 115 149 99 143 122 89 192 211 147 178 192 170 132 105 47 57 92 237
328 324 323 323 323 324 320 327 328 328 325 323 318 312 302 270 236 269 48 144 144 201 299 183 173 153 174 160 157 175 162 167 156 128 169 150 190 259 155 141 55 81 67 14 357 354 225
320 317 321 322 320 316 327 333 332 330 326 324 321 314 299 264 244 208 355 135 215 235 256 1 132 140 167 139 187 135 136 137 125 117 140 165 190 178 201 182 187 180 152 156 196 200 240
325 324 322 319 321 323 327 332 334 331 327 328 327 311 283 266 209 188 187 208 207 224 310 319 217 157 163 176 138 129 164 169 156 160 143 151 208 301 131 162 144 173 154 184 106 15 81
331 330 332 329 327 331 334 330 328 326 329 333 320 305 266 241 172 161 179 230 223 227 349 100 294 191 163 163 117 120 147 185 150 184 148 186 129 214 312 97 47 141 154 93 3 142 217
329 327 326 326 333 334 337 333 327 329 334 338 312 313 319 193 153 163 208 225 239 265 6 154 252 295 138 140 120 114 163 52 133 100 114 131 109 215 121 24 110 31 89 57 110 127 171
338 336 337 337 338 337 334 332 331 334 342 349 299 310 36 150 157 179 198 202 242 254 40 303 176 214 172 44 77 109 131 104 134 132 96 72 127 127 113 292 251 67 124 121 138 195 140
340 335 336 335 334 334 335 337 337 338 347 345 311 272 329 220 200 206 247 231 240 246 131 313 171 80 13 89 104 92 91 359 58 86 128 164 26 84 10 4 11 73 50 104 108 75 185
342 342 340 336 336 337 339 339 334 337 339 339 288 303 286 212 252 107 355 235 203 223 185 31 318 162 112 41 7 103 92 28 29 80 90 82 79 142 187 155 142 140 168 163 114 128 201
341 340 342 340 336 339 336 338 337 333 338 323 224 268 354 311 296 330 83 299 199 184 115 94 282 68 120 136 70 98 82 95 30 20 51 86 115 91 121 127 136 192 218 201 198 199 186
340 341 341 341 339 339 336 336 337 334 337 250 282 308 336 288 310 251 220 29 257 110 18 159 164 22 65 103 169 167 122 95 156 32 59 24 117 104 73 14 283 268 248 218 228 246 263
340 340 342 341 340 337 336 337 338 338 347 324 322 307 306 321 314 228 39 24 324 142 20 56 93 88 75 94 86 93 77 92 137 130 114 96 129 103 209 18 309 285 234 216 187 196 175
342 344 340 340 340 340 335 339 341 335 335 328 303 316 308 317 350 356 359 73 353 290 127 86 12 31 116 100 89 57 59 69 82 50 101 119 96 72 124 31 259 251 271 211 202 220 191
341 342 342 343 339 342 335 340 345 340 332 329 316 301 314 310 321 8 23 81 5 19 46 75 39 326 118 64 67 61 15 70 63 67 76 113 111 102 124 174 295 289 139 163 160 235 188
336 338 340 341 343 341 340 343 349 346 345 338 325 345 313 313 10 314 349 45 104 30 350 24 10 14 56 77 72 107 164 141 139 113 41 58 88 110 159 184 223 242 228 318 143 281 144
340 343 343 344 342 341 346 352 349 349 347 341 314 344 280 332 314 358 26 338 3 114 94 28 341 26 30 61 82 111 122 346 145 139 148 131 59 177 166 214 272 231 244 18 103 236 183
340 347 342 343 344 342 349 358 2 4 360 351 332 8 2 350 299 356 9 16 357 25 73 298 38 6 41 66 97 141 108 262 86 148 158 159 158 176 163 199 260 163 112 174 209 225 234
342 345 343 342 344 341 348 355 360 1 5 3 331 347 346 261 278 303 282 274 228 115 93 16 152 67 149 95 91 106 77 49 129 201 350 168 184 183 179 211 237 225 202 270 172 219 243